User: anonymous   Login
Location: Unspecified
(0.0000°N, 0.0000°E)
Time: 18:58:36
(UTC+02:00)
Language:

Cosmos 1295 Rocket - Orbit

View from above orbital plane
View from above orbital plane
View from above satellite
View from above satellite

Ground track
Ground track

The orbit data is extracted from the following two-line orbital elements,

1 12682U 81077B   16179.23324090  .00000049  00000-0  33366-4 0  9997
2 12682  82.9182 281.6038 0032643 258.9828 160.7193 13.78528145753960
Epoch (UTC): 27 June 2016 05:35:52
Eccentricity: 0.0032643
inclination: 82.9182°
perigee height: 945 km
apogee height: 993 km
right ascension of ascending node: 281.6038°
argument of perigee: 258.9828°
revolutions per day: 13.78528145
mean anomaly at epoch: 160.7193°
orbit number at epoch: 75396

The dashed part of the orbit path shows where the satellite is in the earth's shadow,  

DLR